DW7898 Weather Reports


Display with metric or nautical units.
time (UTC)temp
F
wind
direction
speed
MPH
gust
MPH
rain 1hr
in
rain 24hr
in
rain mn
in
humidity
%
barometer
mb
20260509140409 65 111 1.0 4.0 0.02 0.02 0.02 68 1013.5
20260509135415 66 126 0.0 4.0 0.01 0.01 0.00 64 1013.9
20260509134338 66 158 1.0 5.0 0.00 0.00 0.00 60 1013.7
20260509133342 66 116 3.0 9.0 0.00 0.00 0.00 60 1013.4
20260509132338 66 59 2.0 7.0 0.00 0.00 0.00 60 1013.2
20260509131344 66 66 4.0 9.0 0.00 0.00 0.00 61 1013.1
20260509130344 66 86 3.0 11.0 0.00 0.00 0.00 60 1012.5
20260509125342 66 71 5.0 12.0 0.00 0.00 0.00 59 1012.4
20260509124349 66 46 6.0 9.0 0.00 0.00 0.00 59 1012.5
20260509123355 66 28 5.0 13.0 0.00 0.00 0.00 59 1012.6
20260509122357 66 53 3.0 13.0 0.00 0.00 0.00 59 1013.0
20260509121357 67 65 7.0 12.0 0.00 0.00 0.00 57 1013.3
20260509120343 67 96 4.0 9.0 0.00 0.00 0.00 57 1013.8
20260509115344 66 77 5.0 13.0 0.00 0.00 0.00 56 1014.1
20260509114347 67 105 4.0 12.0 0.00 0.00 0.00 58 1014.4
20260509113352 67 119 4.0 13.0 0.00 0.00 0.00 57 1014.4
20260509112352 67 101 6.0 14.0 0.00 0.00 0.00 57 1014.7
20260509111352 67 70 7.0 13.0 0.00 0.00 0.00 55 1014.6
20260509110349 67 115 2.0 11.0 0.00 0.00 0.00 57 1014.4
20260509105352 67 109 5.0 15.0 0.00 0.00 0.00 58 1014.6
20260509104356 67 109 4.0 9.0 0.00 0.00 0.00 61 1014.5
20260509103358 67 71 4.0 13.0 0.00 0.00 0.00 61 1014.5
20260509102355 67 153 7.0 12.0 0.00 0.00 0.00 63 1014.5
20260509101337 67 63 4.0 14.0 0.00 0.00 0.00 63 1014.4
20260509100340 67 85 2.0 12.0 0.00 0.00 0.00 63 1014.4
20260509095340 67 87 5.0 7.0 0.00 0.00 0.00 64 1014.4
20260509094354 67 78 3.0 13.0 0.00 0.00 0.00 64 1014.3
20260509093357 67 35 6.0 9.0 0.00 0.00 0.00 65 1014.2
20260509092355 67 71 5.0 11.0 0.00 0.00 0.00 66 1014.2
20260509091356 66 111 3.0 9.0 0.00 0.00 0.00 68 1014.0
20260509090338 66 75 6.0 9.0 0.00 0.00 0.00 69 1013.8
20260509085357 65 55 5.0 10.0 0.00 0.00 0.00 70 1014.0
20260509084342 65 72 5.0 11.0 0.00 0.00 0.00 69 1014.0
20260509083348 65 95 5.0 10.0 0.00 0.00 0.00 70 1013.8
20260509082338 65 68 3.0 9.0 0.00 0.00 0.00 70 1013.7
20260509081359 65 43 4.0 10.0 0.00 0.00 0.00 70 1013.8
20260509080340 65 46 6.0 10.0 0.00 0.00 0.00 72 1013.8
20260509075401 64 76 2.0 8.0 0.00 0.00 0.00 73 1014.0
20260509074341 64 14 4.0 9.0 0.00 0.00 0.00 73 1014.0
20260509073349 63 51 7.0 11.0 0.00 0.00 0.00 75 1014.1
20260509072345 63 79 4.0 7.0 0.00 0.00 0.00 76 1014.2
20260509071352 62 41 3.0 8.0 0.00 0.00 0.00 76 1014.5
20260509070352 62 23 5.0 10.0 0.00 0.00 0.00 76 1014.6
20260509065348 62 54 5.0 8.0 0.00 0.00 0.00 76 1014.6
20260509064354 61 50 6.0 11.0 0.00 0.00 0.00 77 1014.6
20260509063357 61 20 4.0 9.0 0.00 0.00 0.00 77 1014.7
20260509062351 60 93 3.0 9.0 0.00 0.00 0.00 77 1014.8
20260509061357 60 31 3.0 7.0 0.00 0.00 0.00 78 1014.8
20260509060340 60 45 4.0 6.0 0.00 0.00 0.00 77 1014.9
20260509055358 60 44 4.0 7.0 0.00 0.00 0.00 76 1014.8
20260509054339 60 36 4.0 6.0 0.00 0.00 0.00 76 1014.6
20260509053342 60 44 3.0 7.0 0.00 0.00 0.00 76 1014.5
20260509052359 60 46 4.0 6.0 0.00 0.00 0.00 76 1014.7
20260509051354 60 62 3.0 6.0 0.00 0.00 0.00 76 1014.5
20260509050355 59 30 3.0 6.0 0.00 0.00 0.00 76 1015.0
20260509045355 60 41 2.0 7.0 0.00 0.00 0.00 76 1014.8
20260509044353 60 37 3.0 5.0 0.00 0.00 0.00 76 1014.8
20260509043358 60 59 3.0 4.0 0.00 0.00 0.00 76 1014.8
20260509042350 60 22 2.0 5.0 0.00 0.00 0.00 76 1014.9
20260509041353 60 57 2.0 7.0 0.00 0.00 0.00 76 1014.9
20260509040355 60 31 3.0 5.0 0.00 0.00 0.00 77 1014.7
20260509035355 60 21 3.0 5.0 0.00 0.00 0.00 76 1014.8
20260509034355 60 0 2.0 4.0 0.00 0.00 0.00 76 1014.9
20260509033340 60 25 3.0 5.0 0.00 0.00 0.00 75 1015.0
20260509032338 60 14 0.0 2.0 0.00 0.00 0.00 76 1015.0
20260509031337 60 14 0.0 4.0 0.00 0.00 0.00 76 1014.9
20260509030338 60 11 2.0 4.0 0.00 0.00 0.00 76 1015.0
20260509025354 60 20 1.0 5.0 0.00 0.00 0.00 76 1015.0
20260509024356 60 48 3.0 4.0 0.00 0.00 0.00 76 1014.8
20260509023342 60 37 1.0 5.0 0.00 0.00 0.00 76 1015.0
20260509022340 59 34 4.0 5.0 0.00 0.00 0.00 75 1015.3
20260509021338 59 40 3.0 5.0 0.00 0.00 0.00 75 1015.3
20260509020340 59 38 3.0 6.0 0.00 0.00 0.00 75 1015.2
20260509015357 59 24 4.0 5.0 0.00 0.00 0.00 75 1015.5
20260509014339 59 27 2.0 5.0 0.00 0.00 0.00 75 1015.6
20260509013341 59 57 2.0 5.0 0.00 0.00 0.00 76 1015.8
20260509012359 59 37 3.0 6.0 0.00 0.00 0.00 76 1015.9
20260509011358 59 23 4.0 6.0 0.00 0.00 0.00 76 1015.6
20260509010337 59 46 3.0 4.0 0.00 0.00 0.00 76 1015.9
20260509005340 59 44 1.0 5.0 0.00 0.00 0.00 76 1016.0
20260509004354 59 22 3.0 6.0 0.00 0.00 0.00 76 1016.1
20260509003357 59 30 4.0 6.0 0.00 0.00 0.00 76 1016.3
20260509002338 59 44 1.0 5.0 0.00 0.00 0.00 76 1016.2
20260509001358 59 50 3.0 5.0 0.00 0.00 0.00 76 1016.1
20260509000356 59 45 2.0 5.0 0.00 0.00 0.00 76 1016.4
20260508235357 59 34 3.0 6.0 0.00 0.00 0.00 76 1016.3
20260508234338 59 21 3.0 6.0 0.00 0.00 0.00 76 1016.2
20260508233341 59 25 1.0 5.0 0.00 0.00 0.00 76 1016.4
20260508232338 59 17 5.0 7.0 0.00 0.00 0.00 76 1016.4
20260508231356 59 45 2.0 5.0 0.00 0.00 0.00 76 1016.4
20260508230338 59 51 3.0 6.0 0.00 0.00 0.00 76 1016.4
20260508225354 59 61 2.0 6.0 0.00 0.00 0.00 77 1016.5
20260508224337 59 62 2.0 5.0 0.00 0.00 0.00 77 1016.5
20260508223340 59 27 3.0 6.0 0.00 0.00 0.00 76 1016.5
20260508222342 59 49 4.0 5.0 0.00 0.00 0.00 75 1016.7
20260508221344 59 16 0.0 5.0 0.00 0.00 0.00 75 1016.6
20260508220348 60 25 2.0 5.0 0.00 0.00 0.00 74 1016.6
20260508215349 60 37 2.0 5.0 0.00 0.00 0.00 74 1016.5
20260508214356 60 48 3.0 4.0 0.00 0.00 0.00 73 1016.7
20260508213337 61 90 0.0 1.0 0.00 0.00 0.00 72 1016.7
20260508212354 61 90 0.0 0.0 0.00 0.00 0.00 72 1016.7
20260508211357 61 90 0.0 0.0 0.00 0.00 0.00 71 1016.6
20260508210338 61 90 0.0 0.0 0.00 0.00 0.00 71 1016.7
20260508205358 61 90 0.0 0.0 0.00 0.00 0.00 71 1016.6
20260508204344 61 90 0.0 2.0 0.00 0.00 0.00 71 1016.5
20260508203353 61 90 0.0 2.0 0.00 0.00 0.00 71 1016.5
20260508202350 61 90 0.0 4.0 0.00 0.00 0.00 71 1016.3
20260508201349 62 94 1.0 5.0 0.00 0.00 0.00 71 1016.1
20260508200338 62 100 2.0 6.0 0.00 0.00 0.00 71 1016.0
20260508195355 62 93 0.0 4.0 0.00 0.00 0.00 70 1015.9
20260508194357 63 96 1.0 5.0 0.00 0.00 0.00 69 1015.9
20260508193342 63 99 2.0 5.0 0.00 0.00 0.00 68 1015.8
20260508192342 63 97 2.0 4.0 0.00 0.00 0.00 67 1015.6
20260508191344 64 107 2.0 4.0 0.00 0.00 0.00 66 1015.5
20260508190344 64 114 1.0 3.0 0.00 0.00 0.00 66 1015.5
20260508185338 64 121 0.0 0.0 0.00 0.00 0.00 66 1015.5
20260508184339 64 122 0.0 0.0 0.00 0.00 0.00 66 1015.3
20260508183345 64 123 0.0 4.0 0.00 0.00 0.00 66 1015.3
20260508182339 64 122 2.0 4.0 0.00 0.00 0.00 66 1015.1
20260508181345 65 121 2.0 5.0 0.00 0.00 0.00 66 1015.0
20260508180353 65 126 2.0 9.0 0.00 0.00 0.00 66 1015.0
20260508175348 65 83 1.0 8.0 0.00 0.00 0.00 66 1014.9
20260508174347 65 139 5.0 9.0 0.00 0.00 0.00 66 1015.0
20260508173353 65 128 6.0 11.0 0.00 0.00 0.00 65 1014.9
20260508172356 65 119 5.0 11.0 0.00 0.00 0.00 63 1014.8
20260508171340 66 137 5.0 10.0 0.00 0.00 0.00 63 1014.9
20260508170345 66 239 1.0 8.0 0.00 0.00 0.00 65 1014.6
20260508165347 66 193 4.0 11.0 0.00 0.00 0.00 64 1014.7
20260508164349 66 188 2.0 9.0 0.00 0.00 0.00 63 1014.7
20260508163340 67 200 3.0 9.0 0.00 0.00 0.00 62 1014.6
20260508162341 66 205 2.0 10.0 0.00 0.00 0.00 61 1014.6
20260508161345 66 100 5.0 11.0 0.00 0.00 0.00 61 1014.6
20260508160354 66 136 5.0 12.0 0.00 0.00 0.00 61 1014.7
20260508155353 66 109 7.0 12.0 0.00 0.00 0.00 60 1014.7
20260508154338 66 145 6.0 11.0 0.00 0.00 0.00 59 1014.7
20260508153340 67 113 5.0 11.0 0.00 0.00 0.00 60 1014.7
20260508152358 67 149 4.0 12.0 0.00 0.00 0.00 59 1014.8
20260508151338 67 333 2.0 10.0 0.00 0.00 0.00 62 1014.7
20260508150350 67 155 2.0 13.0 0.00 0.00 0.00 60 1014.5
20260508145346 67 174 2.0 8.0 0.00 0.00 0.00 60 1014.6
20260508144354 67 125 5.0 11.0 0.00 0.00 0.00 59 1014.6
20260508143355 67 123 6.0 10.0 0.00 0.00 0.00 58 1014.6
20260508142352 68 128 7.0 12.0 0.00 0.00 0.00 58 1014.7
20260508141354 69 123 4.0 9.0 0.00 0.00 0.00 55 1014.8